Flag for Switzerland Weather past 2 weeks in Bülach, Zurich, Switzerland

Now
57 °F

Cool.


Feels Like: 57 °F
Forecast: 45 / 76 °F
Wind: 2 mph from East

Location: Zurich-Kloten

Current Time: Sep 16, 2014 at 10:01:41 AM

Latest Report: Sep 16, 2014 at 9:00 AM


Visibility: N/A

Pressure: 30.02 "Hg

Humidity: 99%

Dew point: 56 °F

Location of BülachLocation

Historic Weather in Bülach — Graph

°F

Bülach temperature yesterday

Maximum temperature yesterday: 71 °F (at 4:00 PM)
Minimum temperature yesterday: 52 °F (at 5:00 AM)
Average temperature yesterday: 61 °F

Past Weeks' High & Low Weather Summary

 TemperatureHumidityPressure
High80 °F (Sep 8, 4:00 PM)100% (Sep 6, 8:00 AM)30.17 "Hg (Sep 6, 8:00 AM)
Low48 °F (Sep 2, 5:00 AM)44% (Sep 7, 4:00 PM)29.83 "Hg (Sep 6, 6:00 PM)
Average61 °F81%30.02 "Hg
* Reported Sep 1 8:00 AM — Sep 16 8:00 AM, Bülach, Weather by CustomWeather, © 2014

Note: Actual official high and low records may vary slightly from our data, if they occured in-between our weather recording intervals... More about our weather records

Advertising

Bülach weather history for previous 24 hours

 ConditionsComfort  
Time TempWeatherWind HumidityBarometerVisibility
8:00 AM
Sep 16
56 °FFog.2 mph100%30.01 "Hg0 mi
7:00 AM55 °FCool.1 mph100%30.01 "HgN/A
6:00 AM53 °FCool.1 mph100%30.01 "HgN/A
5:00 AM52 °FFog.1 mph100%30.01 "Hg1 mi
4:00 AM54 °FCool.1 mph99%30.00 "HgN/A
3:00 AM55 °FCool.1 mph97%30.00 "HgN/A
2:00 AM57 °FPassing clouds.2 mph97%29.99 "Hg9 mi
1:00 AM56 °FCool.3 mph98%29.99 "HgN/A
12:00 AM59 °FCool.1 mph95%29.99 "HgN/A
11:00 PM
Sep 15
59 °FFog.2 mph94%29.98 "Hg9 mi
10:00 PM58 °FCool.2 mph94%29.98 "HgN/A
9:00 PM63 °FMild.3 mph85%29.96 "HgN/A
8:00 PM67 °FPassing clouds.3 mph71%29.93 "Hg11 mi
7:00 PM69 °FMild.5 mph67%29.92 "HgN/A
6:00 PM70 °FMild.3 mph64%29.91 "HgN/A
5:00 PM70 °FPartly sunny.2 mph64%29.92 "Hg12 mi
4:00 PM71 °FMild.3 mph61%29.93 "HgN/A
3:00 PM69 °FMild.2 mph64%29.94 "HgN/A
2:00 PM67 °FScattered clouds.2 mph70%29.96 "Hg7 mi
1:00 PM65 °FMild.2 mph72%29.99 "HgN/A
12:00 PM64 °FMild.2 mph77%30.00 "HgN/A
11:00 AM61 °FFog.3 mph79%30.01 "Hg4 mi
10:00 AM60 °FCool.1 mph88%30.02 "HgN/A
Weather by CustomWeather, © 2014

See weather overviewHow to use our weather pages